Weather in Banja Luka

Bosnia and Herzegovina     44°47′26″N   17°12′20″E
temp.,
°C
wind,
m/s
gust,
m/s
humid.,
%
clouds,
%
prec.,
mm/h
press.,
hPa
HPBL,
m
12 may, wed
wed1223:00+15ssw3367100 0.0 100845
02:00+14ssw2373100 0.1 100759
05:00+14wsw227469 0.3 100727
08:00+13ssw1190100 1.2 100861
11:00+16s2473100 1.1 1008635
14:00+20nnw2446100 1.1 10061704
17:00+19wsw245598 0.2 1006609
20:00+13wsw11692 0.3 100712
13 may, thu
thu1323:00+11ssw227543 0.0 100825
02:00+10sw227388 0.0 100734
05:00+11s127049 0.0 100649
08:00+15sw375380 0.0 1006819
11:00+18sw564499 0.0 10052069
14:00+18wsw4649100 0.0 10052057
17:00+15wnw2666100 0.3 1005341
20:00+13sw227593 0.7 100639
14 may, fri
fri1423:00+11ssw238091 0.1 100852
02:00+11ssw117858 0.1 100824
05:00+8s228929 0.0 100928
08:00+13se017164 0.0 1010270
11:00+16e126289 0.4 10091246
14:00+14w228466 2.5 1010125
17:00+18wnw255498 1.2 10081460
20:00+12wsw117093 1.4 100911
15 may, sat
sat1523:00+9ssw2273100 0.0 101126
02:00+9ssw2175100 0.0 101023
05:00+10s1275100 0.0 100939
08:00+11w1288100 0.6 1010128
11:00+13nne2276100 0.2 1009579
14:00+13e008098 0.6 1009200
17:00+15nnw116030 0.1 1009732
20:00+11ssw117926 0.1 100910
16 may, sun
sun1623:00+9ssw22895 0.0 101118
02:00+8sw22911 0.1 101139
05:00+7ssw22910 0.0 101119
08:00+13wsw12720 0.0 1011265
11:00+18nw33562 0.0 10111397
14:00+20n234893 0.1 10101910
17:00+19ne125449 0.0 1010890
20:00+15e117298 0.0 101111